Location: *
(45.6333°N, 9.4167°E)
Time: 07:28:58
(UTC+00:00)

Daily predictions for brighter satellites

Satellite Brightness Start Highest point End
(mag) Time Altitude Azimuth Time Altitude Azimuth Time Altitude Azimuth
Aureole 1 Rocket 3.8 19:31:39 10° S 19:36:18 55° ESE 19:42:29 10° NNE
Cosmos 332 Rocket 3.9 19:33:24 10° NNW 19:38:14 85° WSW 19:43:02 10° SSE
CZ-2C R/B 3.6 19:40:15 10° NE 19:44:34 26° E 19:48:49 10° SSE
Cosmos 1869 3.3 19:42:48 10° N 19:46:46 83° ENE 19:50:43 10° S
Cosmos 1340 Rocket 2.9 19:43:08 10° N 19:47:15 81° ENE 19:51:20 10° SSE
Cosmos 304 Rocket 3.9 19:44:21 10° NNW 19:49:10 63° ENE 19:53:56 10° SSE
SL-23 DEB 4.4 19:46:11 10° WNW 19:51:47 63° NNE 19:55:17 10° ESE
Cosmos 2322 Rocket 2.4 19:46:43 10° S 19:52:15 53° ESE 19:57:48 10° NE
Terra 3.8 19:50:03 10° E 19:52:53 16° ENE 19:55:43 10° NNE
Cosmos 44 3.9 19:48:30 10° SW 19:53:45 67° NW 19:58:46 10° NNE
DMSP B5D2-2 4.2 19:49:49 10° NNE 19:54:58 58° E 20:00:04 10° S
Iridium 4 Rocket 4.0 19:49:09 10° N 19:54:59 56° E 20:00:38 10° SSE
Cosmos 2151 3.1 19:50:52 10° S 19:55:02 56° E 19:59:17 10° NNE
Cosmos 2251 Rocket 3.5 19:52:07 10° SSW 19:57:22 86° ESE 20:02:39 10° NNE
Cosmos 44 Rocket 3.7 19:52:41 10° S 19:57:33 44° ESE 20:02:21 10° NE
SL-16 R/B 2.2 19:52:31 10° SSW 19:58:07 67° ESE 20:03:45 10° NNE
Gbstr 26 Del rocket 2.8 19:57:17 10° WSW 20:01:25 83° NNW 20:05:10 10° ENE
ADEOS Rocket 2.7 19:56:20 10° NNE 20:02:00 77° ESE 20:07:28 10° S
ERS-1 Rocket 3.8 19:57:32 10° SE 20:02:06 36° ENE 20:06:40 10° N
Cosmos 1825 3.9 20:00:42 11° SE 20:02:52 17° E 20:05:18 10° NE
Okean 3 Rocket 3.9 19:59:01 10° SSW 20:03:33 77° W 20:08:07 10° N
ARGOS 4.1 20:01:19 10° S 20:06:32 47° W 20:11:45 10° NNW
Cosmos 1743 Rocket 4.4 20:05:21 10° SSE 20:09:08 31° E 20:12:59 10° NNE
Cosmos 1464 Rocket 4.0 20:07:15 10° S 20:13:30 77° E 20:19:44 10° N
Cosmos 1844 Rocket 3.7 20:08:23 10° NNW 20:13:32 34° NE 20:18:14 12° ESE
EO 1 Del DPAF 3.7 20:11:20 10° NNE 20:14:57 41° E 20:18:32 10° S
MTI 4.0 20:12:18 10° N 20:15:27 69° WNW 20:18:36 10° SSW
USA 215 3.8 20:10:49 10° NE 20:17:18 65° NNW 20:23:46 10° WSW
Tiangong 2 2.0 20:14:29 10° W 20:17:20 33° SSW 20:19:09 18° SE
Cosmos 1515 Rocket 3.8 20:13:26 10° N 20:17:43 52° ENE 20:21:13 14° SSE
Cosmos 2263 Rocket 2.7 20:12:44 10° NNW 20:18:20 58° WSW 20:23:54 10° S
In-Cosmos 22 Rocket 4.2 20:15:15 10° S 20:20:40 89° WNW 20:26:16 10° N
Cosmos 1992 Rocket 4.1 20:15:33 10° NNW 20:20:48 76° WSW 20:25:47 11° SSE
Cosmos 1766 Rocket 3.9 20:16:34 10° SSW 20:20:52 69° W 20:25:11 10° N
SPOT 1/Viking Rocket 3.8 20:20:29 14° SE 20:24:46 55° ENE 20:29:51 10° N
Cosmos 1408 Rocket 3.5 20:23:30 10° S 20:27:48 84° W 20:32:09 10° N
USA 245 1.7 20:26:50 25° SSE 20:27:56 74° ENE 20:30:10 10° N
Lacrosse 5 rocket 4.1 20:27:45 10° NW 20:31:09 20° N 20:34:32 10° NE
Spot 2 Rocket 4.1 20:26:28 10° S 20:31:27 55° W 20:36:29 10° NNW
Cosmos 1242 Rocket 3.7 20:29:13 10° SSW 20:32:44 45° WNW 20:36:19 10° N
Cosmos 2237 4.5 20:27:20 10° S 20:32:44 47° ESE 20:38:11 10° NE
Cosmos 1892 2.9 20:30:26 10° SSW 20:34:16 72° W 20:38:06 10° N
SPOT 5 3.2 20:35:43 18° SE 20:39:25 58° ENE 20:44:11 10° N
CZ-2C R/B 4.1 20:35:01 10° S 20:40:09 43° W 20:45:04 10° NNW
Cosmos 2228 Rocket 3.2 20:38:41 10° N 20:43:14 70° E 20:46:20 20° SSE
Cosmos 1356 Rocket 3.7 20:39:02 10° N 20:43:17 57° ENE 20:45:52 22° SSE
SL-8 R/B 3.8 20:39:18 10° WNW 20:44:06 77° NNE 20:48:09 14° E
Cosmos 921 Rocket 3.5 20:40:48 10° NNW 20:44:57 54° WSW 20:48:19 15° S
SL-4 R/B 2.7 20:43:47 10° SSW 20:48:19 41° SE 20:52:49 10° ENE
Resurs 01 Rocket 3.9 20:45:13 10° SW 20:48:30 20° W 20:51:48 10° NW
Cosmos 1782 4.4 20:45:30 10° NNE 20:48:40 22° ENE 20:50:12 18° ESE
Mayak 0.9 20:49:16 10° ENE 20:50:46 12° E 20:51:05 12° E
DELTA 2 R/B (1) 4.1 20:45:56 10° SW 20:51:00 36° SSE 20:55:04 15° ESE
COSMOS 2428 3.7 20:48:54 21° SE 20:51:16 27° ESE 20:56:01 10° NE
CARTOSAT-1 3.6 20:49:10 23° SSE 20:51:45 66° ENE 20:56:03 10° N
USA 267 3.5 20:47:06 18° SSE 20:51:57 58° SW 20:58:25 10° WNW
Cosmos 1844 4.1 20:48:00 10° NNW 20:53:29 52° ENE 20:57:03 21° SE
Cosmos 1151 Rocket 4.0 20:52:48 10° NNW 20:56:59 44° W 21:00:48 12° SSW
ATLAS CENTAUR R/B 4.0 20:56:02 10° N 20:59:14 17° NNE 21:02:19 10° ENE
NOSS 3-1 (C) 3.5 20:55:31 10° SSW 21:00:47 48° ESE 21:06:48 10° NE
Landsat 7 4.0 20:57:35 19° S 21:00:57 71° WSW 21:05:43 10° NNW
ASTEX 1 4.1 20:59:11 10° NNE 21:03:51 38° E 21:05:57 26° SE
Cosmos 2360 Rocket 2.2 21:00:01 10° SSW 21:05:40 85° WNW 21:11:21 10° NNE
ISS -3.4 21:03:33 10° WSW 21:06:52 67° NNW 21:10:12 10° ENE
Cosmos 676 Rocket 4.4 21:05:24 25° SSE 21:08:00 44° ESE 21:12:58 10° NNE
Cosmos 2237 Rocket 3.9 21:07:54 14° E 21:08:13 14° E 21:11:01 10° ENE
Lacrosse 5 4.1 21:04:59 10° NW 21:09:03 23° N 21:13:07 10° ENE
Cosmos 1408 3.4 21:11:39 14° SSW 21:14:37 49° WNW 21:18:15 10° N
Sich 1 3.6 21:14:33 32° SE 21:15:47 40° E 21:19:48 10° NNE
Cosmos 2084 Rocket 3.8 21:13:12 10° NNW 21:17:33 59° NE 21:19:28 30° ESE
Cosmos 1606 2.6 21:14:04 10° N 21:17:51 88° W 21:19:13 38° S
Cosmos 1627 Rocket 4.4 21:12:30 10° N 21:18:42 81° E 21:22:23 26° SSE
Cosmos 1500 Rocket 4.2 21:15:39 13° SSW 21:19:34 54° WNW 21:23:59 10° N
Cosmos 292 Rocket 3.7 21:14:41 10° NNW 21:19:34 89° WSW 21:21:48 32° SSE
BREEZE-M DEB (TANK) 4.4 21:17:12 10° SW 21:21:55 77° SSE 21:41:28 10° ENE
Cosmos 1954 Rocket 4.1 21:20:01 28° S 21:22:34 54° ESE 21:27:42 10° NNE
MOS 1 Rocket 3.2 21:18:32 10° NNE 21:23:00 65° E 21:25:05 32° S
CZ-2C R/B 3.6 21:20:06 10° N 21:25:04 44° WNW 21:29:57 10° SW
Cosmos 1933 4.2 21:22:11 10° NNW 21:26:05 45° W 21:28:08 24° SSW
Terra 1.9 21:27:45 30° S 21:30:04 71° WSW 21:34:51 10° NNW
Cosmos 1140 Rocket 3.4 21:27:45 21° SSW 21:31:13 83° ESE 21:36:27 10° NNE
Cosmos 1263 4.0 21:29:03 10° N 21:32:01 86° W 21:32:22 68° S
Cosmos 407 Rocket 3.9 21:27:47 10° SSW 21:33:03 65° WNW 21:38:23 10° NNE
Cosmos 2279 Rocket 4.0 21:31:09 29° SSE 21:34:17 62° E 21:40:24 10° NNE
Thor Agena Rocket 4.3 21:30:07 10° N 21:35:00 49° WNW 21:39:50 10° SW
USA 81 4.4 21:30:44 10° NNW 21:35:56 60° W 21:39:02 24° SSW
Cosmos 2219 Rocket 2.3 21:33:10 29° S 21:35:57 58° ESE 21:41:31 10° NNE
Cosmos 2322 Rocket 4.2 21:31:42 10° WSW 21:36:36 29° NW 21:41:31 10° N
Cosmos 2333 4.1 21:33:29 17° SSW 21:38:01 86° ESE 21:43:44 10° NNE
Cosmos 1825 3.6 21:35:29 16° SW 21:38:06 35° WNW 21:41:36 10° N
USA 229 DEB 3.7 21:31:47 10° SW 21:38:23 82° NW 21:45:21 10° NE
USA 229 3.7 21:31:53 10° SW 21:38:30 83° NW 21:45:27 10° NE
Meteor 2-3 Rocket 4.0 21:34:30 18° SSW 21:38:52 72° WNW 21:44:41 10° N
Cosmos 1190 Rocket 4.4 21:34:00 10° SSW 21:39:07 62° WNW 21:44:19 10° NNE
NOSS 8 (A) 4.0 21:39:12 78° SSE 21:39:18 81° SE 21:42:25 10° NE
ERS-1 Rocket 4.4 21:37:30 15° SSW 21:40:54 31° W 21:45:22 10° NNW
BREEZE-M DEB (TANK) 3.1 21:39:15 10° WNW 21:41:35 45° N 21:46:58 10° E
NOSS 3-1 (A) 3.3 21:38:17 24° SSW 21:41:37 61° ESE 21:47:52 10° NE
Cosmos 2333 Rocket 2.2 21:39:40 29° S 21:42:32 64° ESE 21:48:11 10° NNE
Spot 4 4.4 21:41:09 33° ESE 21:42:47 47° ENE 21:47:22 10° N
BREEZE-M DEB (TANK) 3.2 21:40:59 10° WNW 21:43:04 36° N 21:44:26 19° NE
Cosmos 2278 Rocket 2.9 21:38:26 10° NNW 21:43:53 44° ENE 21:46:37 26° ESE
Cosmos 614 Rocket 4.5 21:39:33 10° SW 21:44:26 57° WNW 21:49:28 10° NNE
Gbstr 26 Del rocket 4.4 21:45:03 10° WNW 21:48:33 33° N 21:51:59 10° ENE
Cosmos 1707 Rocket 3.5 21:46:32 10° N 21:51:00 83° W 21:52:17 46° S
Cosmos 1607 3.9 21:45:47 10° NW 21:51:55 74° WSW 21:54:31 36° SSE
NOSS 2-3 (E) 4.2 21:53:10 40° ESE 21:53:11 40° ESE 21:57:52 10° NE
Cosmos 2322 4.2 21:48:53 10° SW 21:54:27 58° WNW 22:00:04 10° NNE
Helios 1A 3.1 21:54:50 49° ESE 21:55:41 61° ENE 21:59:48 10° N
NOSS 2-3 (D) 4.2 21:56:04 39° ESE 21:56:04 39° ESE 22:00:39 10° NE
Cosmos 1844 Rocket 3.4 21:52:11 10° NW 21:57:32 43° WSW 21:59:54 28° SSW
SeaSat 1 3.5 21:54:42 10° NE 21:58:44 27° ESE 21:58:44 27° ESE
Nimbus 7 Rocket 4.5 21:57:43 10° NNE 22:03:38 63° ESE 22:05:50 39° SSE
Cosmos 1763 Rocket 4.3 21:59:54 10° N 22:04:49 41° ENE 22:06:44 30° ESE
Cosmos 468 Rocket 4.3 22:02:10 10° NNW 22:07:23 57° ENE 22:09:08 38° ESE
NOSS 0 Rocket 4.0 22:06:55 39° SSE 22:08:56 56° ESE 22:14:58 10° NE
Lacrosse 5 rocket 3.2 22:07:23 10° NW 22:11:33 32° NNE 22:15:03 13° E
Cosmos 1655 Rocket 4.1 22:14:51 10° NNW 22:21:06 71° W 22:23:37 38° SSW
Cosmos 2242 Rocket 3.7 22:17:17 10° N 22:21:49 64° E 22:22:30 55° SE
Cosmos 1818 4.0 22:18:12 10° NW 22:23:25 47° WSW 22:24:37 40° SSW
YAOGAN 11 4.0 22:23:11 60° ESE 22:23:46 69° ENE 22:28:04 10° N
Cosmos 2208 Rocket 4.5 22:18:34 10° NNW 22:23:57 55° ENE 22:25:41 39° ESE
Cosmos 1782 4.1 22:21:28 10° NNW 22:25:03 31° W 22:25:49 29° WSW
SL-8 R/B 4.3 22:22:00 10° WNW 22:26:05 39° SW 22:26:05 39° SW
Mayak -1.1 22:22:36 10° N 22:26:51 71° WNW 22:27:40 54° SW
SL-4 R/B 2.8 22:23:12 10° WSW 22:28:00 62° NNW 22:32:40 10° ENE
Meteor 1-10 Rocket 4.4 22:22:40 10° NNW 22:28:16 65° W 22:30:09 41° SSW
ERS-2 3.8 22:28:07 24° ENE 22:28:25 24° ENE 22:31:26 10° NNE
Cosmos 1315 Rocket 4.3 22:28:09 10° NNE 22:31:28 25° ENE 22:31:48 25° E
Cosmos 1812 2.9 22:28:00 10° N 22:31:48 60° ENE 22:31:48 60° ENE
Cosmos 1862 3.4 22:33:05 60° WSW 22:33:29 65° W 22:37:28 10° N
ALOS 2 2.7 22:33:16 56° ESE 22:33:51 63° ENE 22:38:12 10° N
Cosmos 1933 Rocket 3.4 22:34:02 68° SE 22:34:24 74° E 22:38:49 10° NNE
SL-16 R/B 3.3 22:34:09 27° ESE 22:34:26 28° ESE 22:39:09 10° NE
Cosmos 1633 Rocket 3.8 22:33:25 36° WSW 22:34:36 45° WNW 22:38:48 10° N
Cosmos 1400 Rocket 2.9 22:30:39 10° N 22:34:47 67° ENE 22:34:59 66° E
COSMOS 2428 3.5 22:30:50 16° SW 22:35:13 50° WNW 22:40:48 10° NNE
Cosmos 1570 Rocket 4.0 22:30:26 10° NNW 22:35:42 79° ENE 22:36:57 53° SE
DELTA 2 R/B (1) 4.0 22:31:36 10° WSW 22:35:50 41° SW 22:35:50 41° SW
NOSS 2-3 (C) 3.7 22:37:15 52° SW 22:38:22 88° WNW 22:43:39 10° NE
ATLAS CENTAUR R/B 1.6 22:34:19 10° NW 22:39:04 76° NE 22:39:44 62° ESE
JB-3 4.3 22:35:09 10° N 22:39:20 83° WNW 22:39:40 74° SW
Helios 1B rocket 2.3 22:35:30 10° NNE 22:39:39 73° ESE 22:39:43 72° ESE
Lacrosse 4 Rocket 3.1 22:41:23 24° E 22:41:23 24° E 22:44:07 10° NE
Okean 1-7 3.7 22:36:41 10° N 22:40:46 41° ENE 22:41:09 40° E
Cosmos 1932 4.5 22:35:02 10° NW 22:41:31 87° NE 22:43:58 42° SE
SL-24 R/B - RUBIN 2 4.5 22:37:19 10° NNW 22:43:04 70° NE 22:45:39 36° SE
ISS -1.7 22:40:59 10° WNW 22:43:57 29° N 22:46:55 10° ENE
Cosmos 1980 3.6 22:42:14 46° SSW 22:44:02 87° ESE 22:49:47 10° NNE
GP-B 3.0 22:40:17 10° N 22:44:45 82° W 22:45:14 69° SSW
Cosmos 1867 3.6 22:44:53 35° SW 22:47:16 78° NW 22:52:48 10° NNE
Cosmos 1862 Rocket 4.0 22:43:52 10° NNW 22:48:02 48° W 22:48:29 46° WSW
Cosmos 2237 Rocket 2.1 22:49:41 46° SSW 22:51:26 88° WNW 22:57:06 10° NNE
Cosmos 1470 Rocket 3.9 22:51:23 49° WSW 22:52:04 55° WNW 22:56:24 10° N
COSMOS 2455 3.0 22:51:59 48° SSE 22:53:02 54° ESE 22:58:55 10° NE
Lacrosse 5 2.8 22:48:10 10° NW 22:53:04 46° NNE 22:56:25 19° E
Cosmos 1814 Rocket 4.1 22:48:53 10° NNW 22:54:00 66° ENE 22:55:10 50° ESE
Cosmos 2285 Rocket 4.2 22:53:55 45° SSE 22:55:26 57° ESE 23:01:36 10° NNE
Cosmos 1869 Rocket 4.0 22:58:41 47° E 22:58:44 47° E 23:02:57 10° NNE
Cosmos 1633 3.7 22:59:07 34° WNW 22:59:09 34° WNW 23:02:27 10° N
Cosmos 1741 Rocket 4.5 22:57:18 35° SW 22:59:17 56° WNW 23:04:26 10° NNE
Cosmos 724 4.2 22:58:09 10° NW 23:04:10 73° WSW 23:05:33 53° S
Meteor 1-18 Rocket 4.5 23:12:56 10° N 23:18:30 59° ENE 23:20:01 44° SE
Meteor 2-19 Rocket 4.5 23:12:24 10° N 23:18:36 73° E 23:20:28 46° SSE
Cosmos 1553 Rocket 4.2 23:18:08 44° SE 23:19:42 56° E 23:25:40 10° NNE
Meteor 1-25 Rocket 4.2 23:18:37 54° SSE 23:19:43 68° E 23:25:17 10° NNE
Cosmos 2219 Rocket 4.0 23:15:32 10° WSW 23:20:16 27° NW 23:25:02 10° N
Cosmos 2297 3.6 23:16:03 10° NNW 23:21:44 82° ENE 23:23:14 51° SE
Cosmos 540 Rocket 3.4 23:17:05 10° NNW 23:22:14 85° ENE 23:23:07 62° SSE
Cosmos 2333 Rocket 4.1 23:22:39 10° WSW 23:27:16 25° NW 23:31:55 10° N
Meteor 1-20 Rocket 4.2 23:26:19 54° S 23:27:40 78° E 23:33:31 10° NNE
Cosmos 2278 Rocket 3.2 23:22:52 10° NW 23:27:47 31° WSW 23:28:27 30° WSW
Cosmos 1486 Rocket 4.3 23:28:14 49° SE 23:28:52 52° ESE 23:34:01 10° NNE
DELTA 2 DEB (DPAF) 4.5 23:28:59 51° ESE 23:29:38 56° ENE 23:34:02 10° N
Cosmos 1943 Rocket 3.6 23:25:03 10° N 23:29:57 31° NE 23:33:54 14° ESE
ATLAS 5 CENTAUR R/B 3.1 23:24:58 10° NNW 23:30:29 48° NE 23:35:45 14° ESE
Okean 1 3.4 23:31:10 10° N 23:35:07 69° ENE 23:35:07 69° ENE
Gbstr 26 Del rocket 3.8 23:32:21 10° WNW 23:35:56 42° NNE 23:39:44 10° E
SeaSat 1 3.2 23:31:49 10° NNE 23:36:33 47° NW 23:38:30 31° WSW
Cosmos 1733 Rocket 3.9 23:38:02 38° E 23:38:16 38° E 23:42:22 10° NNE
Cosmos 841 Rocket 3.7 23:34:16 10° NNW 23:39:17 52° WSW 23:39:43 51° SW
BREEZE-M DEB (TANK) 3.9 23:31:10 10° W 23:42:42 87° N 23:46:31 10° E
Resurs 1-4 Rocket 4.3 23:41:15 10° ENE 23:43:38 13° E 23:45:39 11° ESE
CZ-4 R/B 4.2 23:40:42 10° N 23:45:17 54° WNW 23:46:10 47° WSW
Lacrosse 5 rocket 1.6 23:46:34 10° NW 23:50:38 61° W 23:50:38 61° W
Cosmos 968 Rocket 4.1 23:51:12 39° ESE 23:51:53 41° ESE 23:56:42 10° NE
Cosmos 1745 Rocket 4.0 23:46:02 10° N 23:52:23 83° E 23:54:26 46° SSE
Cosmos 2369 Rocket 3.1 23:48:46 10° NNW 23:54:15 44° ENE 23:57:57 20° ESE
